Regional Weather Roundup
Issued by NWS

Home | Current Version | Previous Version | Graphics & Text | Print | Product List | Glossary On
Versions: 1 2 3 4 5 6 7 8 9 10 11 12 13 14 15 16 17 18 19 20 21 22 23 24 25 26 27 28 29 30 31 32 33 34 35 36 37 38 39 40 41 42 43 44 45 46 47 48 49 50
000
ASUS45 KABQ 201510
RWRNM
WEATHER ROUNDUP FOR NEW MEXICO
NATIONAL WEATHER SERVICE ALBUQUERQUE NM
900 AM MDT SAT SEP 20 2014

NOTE: "FAIR" MEANS FEW OR NO CLOUDS BELOW 12,000 FEET AGL WITH NO
       SIGNIFICANT WEATHER OR OBSTRUCTIONS TO VISION.

      THIS PRODUCT IS RELEASED AS TWO VERSIONS.  ONE VERSION NEAR
      THE TOP OF THE HOUR CONTAINING PRELIMINARY DATA FROM ALBUQUERQUE
      AND OTHER STATIONS.  A FINAL VERSION WITH ADDITIONAL DATA IS
      ISSUED ABOUT 10 MINUTES AFTER THE HOUR.

NMZ501-503-504-510>518-201600-
NORTHWEST PLATEAU/NORTHCENTRAL MOUNTAINS

CITY           SKY/WX    TMP DP  RH WIND       PRES   REMARKS
FARMINGTON     SUNNY     63  45  51 SE7       30.17R
LOS ALAMOS     SUNNY     61  55  81 CALM      30.30S
SANTA FE       SUNNY     65  53  65 N9        30.24R
TAOS           SUNNY     61  45  55 N6        30.32R
ANGEL FIRE     PTSUNNY   46  44  93 CALM      30.41R FOG

$$
NMZ402-403-502-505>509-201600-
WESTCENTRAL MOUNTAINS/SOUTHWEST MOUNTAINS

CITY           SKY/WX    TMP DP  RH WIND       PRES   REMARKS
GALLUP         SUNNY     62  40  44 NE3       30.24R
GRANTS         SUNNY     59  43  55 N5        30.26S
SILVER CITY    SUNNY     68  61  77 N7        30.17S

$$
NMZ407-409-411-412-201600-
SOUTHERN DESERTS

CITY           SKY/WX    TMP DP  RH WIND       PRES   REMARKS
LORDSBURG      FAIR      70  63  78 MISG      30.08S
DEMING         SUNNY     70  63  78 CALM      30.09R
LAS CRUCES     SUNNY     72  63  73 SW3       30.10S
HOLLOMAN AFB   MOSUNNY   71  64  78 CALM      30.06R
ALAMOGORDO     MOSUNNY   72  64  78 SE7       30.09R
T OR C         MOSUNNY   70  62  76 N7        30.11S

$$
NMZ519>523-201600-
CENTRAL VALLEYS/CENTRAL HIGHLANDS

CITY           SKY/WX    TMP DP  RH WIND       PRES   REMARKS
ALBUQUERQUE    SUNNY     66  57  72 N8        30.18R
MORIARTY ARPT  CLOUDY    59  57  93 CALM      30.25S FOG
CLINES CORNERS FOG       56  55  97 NW8       30.26S VSB 1/4
BELEN          FAIR      67  58  73 NE8       30.17R
SOCORRO        FAIR      67  62  84 N3        30.13S

$$
NMZ524>526-539-540-201600-
SOUTHCENTRAL MOUNTAINS

CITY           SKY/WX    TMP DP  RH WIND       PRES   REMARKS
RUIDOSO        SUNNY     63  59  88 W5        30.26R

$$
NMZ527>531-201600-
NORTHEAST HIGHLANDS/NORTHEAST PLAINS

CITY           SKY/WX    TMP DP  RH WIND       PRES   REMARKS
LAS VEGAS      SUNNY     63  51  65 N8        30.26F
RATON          SUNNY     65  53  65 E5        30.22R
CLAYTON        SUNNY     74  51  44 NW10      30.12R

$$
NMZ532>537-201600-
EASTCENTRAL PLAINS

CITY           SKY/WX    TMP DP  RH WIND       PRES   REMARKS
TUCUMCARI      MOSUNNY   72  60  66 W7        30.09R
CANNON AFB     CLOUDY    66  66 100 E6        30.12R
CLOVIS AIRPORT   N/A     64  61  88 NE6       30.14R

$$
NMZ028-029-538-201600-
SOUTHEAST PLAINS

CITY           SKY/WX    TMP DP  RH WIND       PRES   REMARKS
ROSWELL        CLOUDY    70  66  87 N9        30.08R
CARLSBAD       CLOUDY    72  32  23 N6        30.04R
HOBBS          PTSUNNY   70  70 100 NW6       30.07R


$$


USA.gov is the U.S. government's official web portal to all federal, state and local government web resources and services.